This is the latest recevied weather packets stored in our database for station/object KHOT. If no packets are shown the sender has not sent any weather packets the latest 1 day(s).
| Time | Temp. | Humidity | Pressure | Rain* | Wind** | Luminosity | Snow |
|---|---|---|---|---|---|---|---|
| 1778094812 | 10.56° C | 81% | 1016.9 hPa | - | - | - | - |
| 1778093614 | 10.56° C | 81% | 1017.3 hPa | - | - | - | - |
| 1778088215 | 10.56° C | 81% | 1016.6 hPa | - | - | - | - |
| 1778087616 | 10.56° C | 81% | 1016.9 hPa | - | - | - | - |
| 1778080414 | 10.56° C | 81% | 1015.9 hPa | - | - | - | - |
| 1778079815 | 10.56° C | 81% | 1015.9 hPa | - | - | - | - |
| 1778078614 | 10.56° C | 81% | 1014.9 hPa | - | - | - | - |
| 1778076811 | 10.56° C | 81% | 1014.9 hPa | - | - | - | - |
| 1778075612 | 10.56° C | 81% | 1014.9 hPa | - | - | - | - |
| 1778073213 | 10.56° C | 81% | 1014.9 hPa | - | - | - | - |
| 1778071413 | 10.56° C | 87% | 1013.2 hPa | - | - | - | - |
| 1778070213 | 10.56° C | 87% | 1013.2 hPa | - | - | - | - |
| 1778069612 | 10.56° C | 87% | 1013.2 hPa | - | - | - | - |
| 1778067210 | 11.67° C | 81% | 1012.2 hPa | - | - | - | - |
| 1778066615 | 11.67° C | 87% | 1011.9 hPa | - | - | - | - |
| 1778066014 | 11.67° C | 87% | 1011.9 hPa | - | - | - | - |
| 1778064214 | 12.78° C | 87% | 1011.2 hPa | - | - | - | - |
| 1778063014 | 12.78° C | 87% | 1011.2 hPa | - | - | - | - |
| 1778061813 | 12.78° C | 87% | 1010.5 hPa | - | - | - | - |
| 1778060737 | 13.89° C | 87% | 1009.8 hPa | - | - | - | - |
| 1778059412 | 15.56° C | 87% | 1009.5 hPa | - | - | - | - |
| 1778058812 | 15.56° C | 82% | 1009.8 hPa | - | - | - | - |
| 1778058215 | 15.56° C | 82% | 1009.8 hPa | - | - | - | - |
| 1778057017 | 15.56° C | 87% | 1009.8 hPa | - | - | - | - |
| 1778055210 | 16.67° C | 88% | 1009.5 hPa | - | - | - | - |
* Rain since midnight (hover to see other rain measurements)
** Current wind speed in m/s (hover to see current wind gust speed)